This is the latest recevied weather packets stored in our database for station/object M0JUI-1. If no packets are shown the sender has not sent any weather packets the latest 10 day(s).
| Time | Temp. | Humidity | Pressure | Rain* | Wind** | Luminosity | Snow |
|---|---|---|---|---|---|---|---|
| 1777645034 | 22.22° C | 72% | 1018.9 hPa | 0 mm | - | 646 W/m² | - |
| 1777644735 | 22.22° C | 73% | 1019 hPa | 0 mm | - | 668 W/m² | - |
| 1777644713 | 22.22° C | 74% | 1019.1 hPa | 0 mm | - | 433 W/m² | - |
| 1777643822 | 23.89° C | 70% | 1018.9 hPa | 0 mm | - | 248 W/m² | - |
| 1777643515 | 24.44° C | 67% | 1018.9 hPa | 0 mm | - | 402 W/m² | - |
| 1777643211 | 23.33° C | 70% | 1018.9 hPa | 0 mm | - | 638 W/m² | - |
| 1777642910 | 23.89° C | 68% | 1019 hPa | 0 mm | - | 612 W/m² | - |
| 1777642599 | 23.89° C | 69% | 1019.1 hPa | 0 mm | - | 692 W/m² | - |
| 1777642299 | 22.78° C | 71% | 1019.2 hPa | 0 mm | - | 756 W/m² | - |
| 1777641998 | 22.78° C | 71% | 1019.2 hPa | 0 mm | - | 638 W/m² | - |
| 1777641703 | 23.33° C | 71% | 1019.2 hPa | 0 mm | - | 634 W/m² | - |
| 1777641398 | 22.22° C | 72% | 1019.1 hPa | 0 mm | - | 459 W/m² | - |
| 1777641098 | 23.33° C | 69% | 1019.4 hPa | 0 mm | - | 329 W/m² | - |
| 1777640798 | 23.33° C | 70% | 1019.4 hPa | 0 mm | - | 648 W/m² | - |
| 1777640486 | 22.78° C | 71% | 1019.3 hPa | 0 mm | - | 530 W/m² | - |
| 1777640186 | 22.22° C | 70% | 1019.4 hPa | 0 mm | - | 626 W/m² | - |
| 1777639886 | 22.22° C | 71% | 1019.4 hPa | 0 mm | - | 421 W/m² | - |
| 1777639586 | 21.67° C | 71% | 1019.5 hPa | 0 mm | - | 408 W/m² | - |
| 1777639286 | 21.67° C | 73% | 1019.5 hPa | 0 mm | - | 460 W/m² | - |
| 1777638986 | 21.67° C | 72% | 1019.5 hPa | 0 mm | - | 317 W/m² | - |
| 1777638686 | 22.22° C | 70% | 1019.6 hPa | 0 mm | - | 350 W/m² | - |
| 1777638387 | 22.22° C | 70% | 1019.7 hPa | 0 mm | - | 702 W/m² | - |
| 1777638086 | 22.78° C | 68% | 1019.6 hPa | 0 mm | - | 661 W/m² | - |
| 1777637786 | 21.67° C | 72% | 1019.6 hPa | 0 mm | - | 682 W/m² | - |
| 1777637486 | 21.67° C | 71% | 1019.7 hPa | 0 mm | - | 622 W/m² | - |
* Rain latest hour (hover to see other rain measurements)
** Current wind speed in m/s (hover to see current wind gust speed)